Content
SEND FEEDBACK

Daily
Averages
Monthly
Summary
Brazil

BELO HORIZONTE, MINAS GERAIS


Home > South America > Brazil > Minas Gerais
Elevation: 3008 feet     Latitude: 19 50S     Longitude: 043 56W

WEATHER
 
SELECT A DAY
Number of Records: 158,683;   Date Range: 6/30/96 - 9/21/14
 
SHARE

PRINT THIS DATA

[ ← Previous Day ]
WEATHER ALMANAC - FEBRUARY 13, 2013
[ Next Day → ]
[ °C ]   °F
Weather ElementAverageHighLow
Temperature73.6 °F86 °F (4:00 pm)62.6 °F (5:00 am)
Dewpoint57.4 °F62.6 °F (9:00 am)50 °F (3:00 pm)
Humidity60.7 %88 % (5:00 am)30 % (3:00 pm)
Barometer30.02 in30.09 in (11:00 am)29.98 in (4:00 pm)
Wind Speed5.6 mph11.5 mph (6:00 pm)
Weather ElementAverage
Visibility6.2 mi
Wind DirectionESE (118.3 °)

Weather ElementTotal
Precipitation---
Cooling Degree Days9.3 (Base 65)
Growing Degree Days24.3 (Base 50)
Averaged from 23 records on February 13, 2013
WEATHER CONDITIONS BREAKOUT
WIND DIRECTION BREAKOUT
WEATHER BY HOUR - FEBRUARY 13, 2013
[ °C ]   °F
Local TimeTemperatureDewpointHumidityBarometerVisibilityWind DirectionWind SpeedGust SpeedPrecipitationEventsConditions
1:00 AM66.2 °F59.0 °F78 %30.04 inSouth (170°)3.5 mphClear
2:00 AM66.2 °F59.0 °F78 %30.04 inSSE (150°)3.5 mphClear
3:00 AM66.2 °F59.0 °F78 %30.01 inSE (140°)4.6 mphClear
4:00 AM64.4 °F59.0 °F83 %30.01 inCalmClear
5:00 AM62.6 °F59.0 °F88 %30.01 inCalmClear
6:00 AM62.6 °F59.0 °F88 %30.01 inSouth (190°)1.2 mphClear
7:00 AM62.6 °F59.0 °F88 %30.04 inSW (220°)1.2 mphClear
8:00 AM64.4 °F59.0 °F83 %30.04 inSSE (150°)2.3 mphClear
9:00 AM71.6 °F62.6 °F73 %30.06 inNNE (30°)2.3 mphClear
10:00 AM73.4 °F57.2 °F57 %30.06 inENE (70°)10.4 mphClear
11:00 AM77.0 °F59.0 °F54 %30.09 inNE (40°)5.8 mphClear
12:00 PM78.8 °F53.6 °F42 %30.06 in6.2 miEast (80°)9.2 mphPartly Cloudy
1:00 PM80.6 °F55.4 °F42 %30.04 in6.2 miNNE (20°)6.9 mphPartly Cloudy
2:00 PM82.4 °F53.6 °F37 %30.04 in6.2 miSW (220°)6.9 mphScattered Clouds
3:00 PM84.2 °F50.0 °F30 %30.01 in6.2 miSE (140°)4.6 mphScattered Clouds
4:00 PM86.0 °F51.8 °F31 %29.98 in6.2 miWSW (240°)8.1 mphPartly Cloudy
5:00 PM86.0 °F53.6 °F33 %29.98 in6.2 miSSW (200°)3.5 mphPartly Cloudy
6:00 PM82.4 °F57.2 °F42 %29.98 in6.2 miEast (100°)11.5 mphPartly Cloudy
7:00 PM78.8 °F57.2 °F47 %29.98 in6.2 miEast (100°)11.5 mphPartly Cloudy
8:00 PM75.2 °F59.0 °F57 %29.98 in6.2 miESE (110°)11.5 mphPartly Cloudy
9:00 PM75.2 °F59.0 °F57 %30.01 in6.2 miESE (110°)8.1 mphPartly Cloudy
10:00 PM73.4 °F59.0 °F61 %30.04 in6.2 miESE (110°)5.8 mphPartly Cloudy
11:00 PM71.6 °F60.8 °F69 %30.04 in6.2 miSE (130°)6.9 mphPartly Cloudy
Hourly data recorded from SBLS, located miles away from Belo Horizonte, Minas Gerais







STORIES FROM OUR PARTNERS